[Iaude] MPEC J121: 2016 GJ365 [a=43.11,e=0.05,i=2.2,H=8.2]

mpec at cfa.harvard.edu mpec at cfa.harvard.edu
Tue May 7 15:10:51 EDT 2024


M.P.E.C. 2024-J121                                  Issued 2024 May 7, 19:08 UT

     The Minor Planet Electronic Circulars contain information on unusual
         minor planets, routine data on comets and natural satellites,
         and occasional editorial announcements.  They are published
    on behalf of Division F of the International Astronomical Union by the
          Minor Planet Center, Smithsonian Astrophysical Observatory,
                          Cambridge, MA 02138, U.S.A.
			  
             Prepared using the Tamkin Foundation Computer Network

                              MPC at CFA.HARVARD.EDU
            URL https://www.minorplanetcenter.net/    ISSN 1523-6714

                                   2016 GJ365                                   


Observations:
     K16Ga5J*1C2016 04 02.41460512 19 16.93 +00 03 10.5          24.1 iWEJ121T09
     K16Ga5J 1C2016 04 02.44187512 19 16.81 +00 03 11.3          24.2 iWEJ121T09
     K16Ga5J 1C2016 04 02.52326712 19 16.46 +00 03 13.4                WEJ121T09
     K16Ga5J 1C2016 04 04.34597112 19 08.90 +00 04 01.4                WEJ121T09
     K16Ga5J 1C2016 04 04.38725612 19 08.73 +00 04 02.4                WEJ121T09
     K16Ga5J 1C2016 04 04.41946812 19 08.58 +00 04 03.2                WEJ121T09
     K16Ga5J 1C2016 04 08.51155112 18 51.74 +00 05 48.8          24.3 rWEJ121T09
     K16Ga5J 1C2016 06 04.25194712 16 12.28 +00 21 03.9                WEJ121T09
     K16Ga5J 1C2016 06 04.27035912 16 12.26 +00 21 03.9          23.8 zWEJ121T09
     K16Ga5J 1C2016 06 04.32706012 16 12.20 +00 21 04.2                WEJ121T09
     K16Ga5J 1C2016 06 05.33916012 16 11.22 +00 21 07.6                WEJ121T09
     K16Ga5J 1C2016 06 05.35611412 16 11.20 +00 21 07.7          24.1 rWEJ121T09
     K16Ga5J 4C2017 01 23.60759 12 27 27.75 -00 52 24.5          24.9 i1EJ121T09
     K16Ga5J 4C2017 01 23.61026 12 27 27.76 -00 52 24.5          25.0 i1EJ121T09
     K16Ga5J 4C2017 01 23.62095 12 27 27.73 -00 52 24.5          25.2 i1EJ121T09
     K16Ga5J 4C2017 01 23.64653 12 27 27.70 -00 52 24.2          25.4 i1EJ121T09
     K16Ga5J 1C2017 02 23.52165912 26 09.74 -00 43 01.6                WEJ121T09
     K16Ga5J 1C2017 02 23.59537412 26 09.49 -00 42 59.8                WEJ121T09

Observer details:
T09 Subaru Telescope, Maunakea.  Observers , H. Aihara, Y. AlSayyad, M. Ando,
    R. Armstrong, J. Bosch, E. Egami, H. Furusawa, J. Furusawa, S. Harasawa,
    Y. Harikane, B.-C. Hsieh, H. Ikeda, K. Ito, I. Iwata, T. Kodama, M. Koike,
    M. Kokubo, Y. Komiyama, X. Li, Y. Liang, Y.-T. Lin, R. H. Lupton, N. B.
    Lust, L. A. MacArthur, K. Mawatari, S. Mineo, H. Miyatake, S. Miyazaki, S.
    More, T. Morishima, H. Murayama, K. Nakajima, F. Nakata, A. J. Nishizawa,
    M. Oguri, N. Okabe, Y. Okura, Y. Ono, K. Osato, M. Ouchi, Y.-C. Pan, A. A.
    Plazas Malagon, P. A. Price, S. L. Reed, E. S. Rykoff, T. Shibuya, M.
    Simunovic, M. A. Strauss, K. Sugimori, Y. Suto, N. Suzuki, M. Takada, Y.
    Takagi, T. Takata, S. Takita, M. Tanaka, S. Tang, D. S. Taranu, T. Terai,
    Y. Toba, E. L. Turner, H. Uchiyama, B. Vijarnwannaluk, C. Z. Waters, Y.
    Yamada, N. Yamamoto, T. Yamashita.  Measurers S. Deen, H. Fukuyama.  8.3-m
    Subaru Telescope + CCD, 8.2-m f/2.0 reflector + CCD(HSC).

Orbital elements:
2016 GJ365                                                                      
Epoch 2024 Mar. 31.0 TT = JDT 2460400.5                 Alexandersen            
M 202.19306              (2000.0)            P               Q                  
n   0.00348252     Peri.  287.69599     +0.99323478     +0.11075805             
a  43.1062170      Node    65.95668     -0.08669464     +0.90715553             
e   0.0481524      Incl.    2.18951     -0.07725740     +0.40595752             
P 283              H    8.26          G   0.15           U   8                  
Residuals in seconds of arc
160402 T09  0.0   0.0     160408 T09  0.1-  0.1-    170123 T09  0.1-  0.1+
160402 T09  0.0   0.1+    160604 T09  0.0   0.0     170123 T09  0.1+  0.0
160402 T09  0.1-  0.0     160604 T09  0.0   0.1-    170123 T09  0.1-  0.1-
160404 T09  0.1+  0.1+    160604 T09  0.0   0.0     170123 T09  0.1+  0.1-
160404 T09  0.1+  0.0     160605 T09  0.0   0.0     170223 T09  0.1-  0.0
160404 T09  0.1-  0.0     160605 T09  0.0   0.0     170223 T09  0.1+  0.1+

Ephemeris:
2016 GJ365               a,e,i = 43.11, 0.05, 2                  q = 41.0305
Date    TT    R. A. (2000) Decl.     Delta      r    Elong.  Phase     V
2024 04 07    12 53 40.8 -03 49 51  44.0425 45.0412   176.1     0.1    24.8
...
2024 04 22    12 52 38.5 -03 43 31  44.0865 45.0405   161.5     0.4    24.8
...
2024 04 30    12 52 07.4 -03 40 25  44.1361 45.0402   153.6     0.6    24.9
...
2024 05 06    12 51 45.6 -03 38 18  44.1844 45.0399   147.6     0.7    24.9
2024 05 07    12 51 42.2 -03 37 57  44.1934 45.0399   146.7     0.7    24.9
2024 05 08    12 51 38.7 -03 37 38  44.2026 45.0398   145.7     0.7    24.9
...
2024 05 14    12 51 19.2 -03 35 46  44.2628 45.0396   139.8     0.8    24.9
...
2024 05 22    12 50 56.2 -03 33 38  44.3555 45.0392   132.0     1.0    24.9
...
2024 06 06    12 50 24.1 -03 30 51  44.5612 45.0386   117.5     1.1    24.9

M. P. C. Staff               (C) Copyright 2024 MPC           M.P.E.C. 2024-J121





More information about the Iaude mailing list